Weather in Ust-Chernaya

Russia / Perm Krai     60°28′45″N   52°39′35″E
temp.,
°C
wind,
m/s
gust,
m/s
humid.,
%
clouds,
%
prec.,
mm/h
press.,
hPa
HPBL,
m
26 july, mon
mon2623:00+10sw257617 0.0 101680
02:00+12wsw31068100 0.0 1016286
05:00+11wsw397187 0.0 1016275
08:00+13wsw4107283 0.0 1016418
11:00+17w475727 0.1 10151089
14:00+19wsw4950100 0.4 10142075
17:00+17w265891 0.4 1013303
20:00+14wsw51189100 0.6 1012733
27 july, tue
tue2723:00+12w3898100 7.1 1012469
02:00+10nw399613 0.3 1013375
05:00+8wnw389942 0.3 1014288
08:00+9nw39903 0.0 1014651
11:00+13nw475257 0.0 10141393
14:00+13nw586199 0.0 10141422
17:00+12wnw5964100 0.1 10151303
20:00+12wnw496998 0.2 1013779
28 july, wed
wed2823:00+9w31088100 0.4 1013216
02:00+9nw4107893 0.0 1013707
05:00+6nw388450 0.0 1014402
08:00+8nw377663 0.0 1014628
11:00+11nw3660100 0.0 10141311
14:00+14nw4751100 0.0 10121451
17:00+17wnw4839100 0.0 10102286
20:00+16w254978 0.0 1009317
29 july, thu
thu2923:00+13sw276495 0.0 1007165
02:00+12wnw287499 0.1 1007266
05:00+9nw11936 0.1 100637
08:00+11n118194 0.1 1006149
11:00+17ne126036 0.1 1004881
14:00+20nne235197 0.0 10041490
17:00+18ne2258100 0.0 1004766
20:00+16ene356314 0.0 1004492
30 july, fri
fri3023:00+10e388662 0.0 1004197
02:00+8e279292 0.0 1004166
05:00+8ese2792100 0.1 1004169
08:00+10se2786100 0.3 1003279
11:00+10ese3799100 4.0 1002264
14:00+12ese3599100 2.0 1001228
17:00+15e2398100 3.9 999218
20:00+15nne119973 4.7 999148